SL-14 DEB, 45469

Orbit data source: Space-Track

SL-14 DEB, 45469 is space debris in LEO originally from a launch on Thu, 15 Aug 1991 UTC launched from the Plesetsk Missile And Space Complex (PKMTR). Debris objects in space refer to the collection of defunct objects orbiting the Earth. Examples of debris include non-operational satellites, rocket bodies, and fragments generated from explosions, collisions, or faulty payload assembly.

Loading next visibility...
Identifier
45469, 1991-056CU
Orbit
LEO
Country
Flag of CISCIS
Related business
Manufacturer
Unknown
Mission
Spacecraft
Bus & Motor
Unknown
Mass
Unknown
Launch date (UTC)
1991-08-15 (35 years ago)
Launch vehicle
Unknown
Launch site
Plesetsk Missile And Space Complex (PKMTR)
Object type
Payload
Rocket body
Debris
Shape & HBR
Unknown shape, 1.1 m
Radar Cross Section
Small (<0.1 m²)

Expand to show TLE details & history
Last TLE update: 1 day ago

TLE from 1 day ago
0 SL-14 DEB
1 45469U 91056CU  26125.36614002  .00001209  00000-0  20438-2 0  9998
2 45469  82.5462 102.6859 0100915 309.1726  50.0477 13.42825563299699
Epoch: 2026-05-05T08:47Z
TLE epoch observation values (Epoch: 2026-05-05T08:47:14.497Z)
Latitude
-0.0001°
Longitude
107.63347°
Altitude
1,053.607 km
Speed
7.349 km/s
True Right ascension
06h 50m 44s
True Declination
0° 00' 00"
Sunlit
Object was in daylight at epoch
Visualization orbit readout
Latitude
Unknown
Longitude
Unknown
Altitude
Unknown
Speed
Unknown
Apparent Right ascension
Unknown
Apparent Declination
Unknown
Sunlit
N/A
Visualization observer readout
Local Sidereal Time
03:55:48
Azimuth
Unknown
Elevation
Unknown
Doppler factor
Unknown
Orbital elements
Apogee altitude
1,171.406 km
Perigee altitude
1,020.556 km
Semi-major axis
7,474.118 km
Eccentricity
0.01009
Inclination
82.5462°
RAAN
102.6859°
Arg. of periapsis
309.1726°
True anomaly
50.94137°
Mean anomaly
50.0477°
Eccentric anomaly
50.49381°
Mean motion
3.35895 °/min
Orbital period
107.18 mins
BSTAR
0.0020438
Loading maneuver chart data...
Computing Atmospheric mass density...
Loading historical data...
Loading historical data...
Loading historical data...
Loading historical data...
Loading historical data...
Loading historical data...
Loading historical data...

Documentation

Showing up to 5 results
|